Location: Niagara
(43.2500°N, 79.0670°W)
Time: 16:51:42
(UTC-05:00)

Tiangong 2 - Pass Details

Date: 07 October 2017
Orbit: 386 x 390 km, 42.8° (Epoch: 15 December)

Event Time Altitude Azimuth Distance (km) Brightness Sun altitude
Exits shadow 06:43:49 - 222° (SW) 2,143 4.4 -7.6°
Reaches altitude 10° 06:45:47 10° 210° (SSW) 1,420 3.7 -7.2°
Maximum altitude 06:48:27 24° 153° (SSE) 853 3.2 -6.7°
Drops below altitude 10° 06:51:08 10° 97° (E) 1,427 5.8 -6.2°
Sets 06:53:26 0° 83° (E) 2,287 7.3 -5.8°
